Weather History for KICR - October, 2012

Change the Weather History Date:

Tuesday, October 2, 2012

  Actual Average Record
Temperature  
Mean Temperature 64 °F 56 °F  
Max Temperature 86 °F 69 °F 89 °F (2011)
Min Temperature 41 °F 44 °F 33 °F (2010)
Degree Days  
Heating Degree Days 1 9  
Month to date heating degree days 10 18  
Since 1 July heating degree days 68 160  
Cooling Degree Days 0 1  
Month to date cooling degree days 0 2  
Year to date cooling degree days 1468 908  
Growing Degree Days 14 (Base 50)    
Moisture  
Dew Point 32 °F    
Average Humidity 37    
Maximum Humidity 57    
Minimum Humidity 16    
Precipitation  
Precipitation 0.00 in 0.06 in 0.08 in (2014)
Month to date precipitation 0.01 0.12  
Year to date precipitation 10.12 19.11  
Sea Level Pressure  
Sea Level Pressure 29.82 in    
Wind  
Wind Speed 15 mph (South)    
Max Wind Speed 25 mph    
Max Gust Speed 33 mph    
Visibility 10 miles    
Events      
T = Trace of Precipitation, MM = Missing Value Source: NWS Daily Summary

Daily Weather History Graph

Daily Weather History Graph

Search for Another Location

Airport or City:

Trip Planner

Search our weather history database for the weather conditions in past years. The results will help you decide how hot, cold, wet, or windy it might be!

Date:

Astronomy

Oct. 02, 2012 Rise Set
Actual Time 7:38 AM CDT 7:17 PM CDT
Civil Twilight 7:10 AM CDT 7:46 PM CDT
Nautical Twilight 6:36 AM CDT 8:19 PM CDT
Astronomical Twilight 6:03 AM CDT 8:52 PM CDT
Moon 8:25 PM CDT (10/2) 10:13 AM CDT (10/2)
Length of Visible Light 12h 36m
Length of Day
11h 39m
Waning Gibbous, 94% of the Moon is Illuminated
Oct 2
Waning Gibbous
Oct 8
Last Quarter
Oct 15
New
Oct 21
First Quarter
Oct 29
Full

Hourly Weather History & Observations

Time (CDT) Temp. Windchill Dew Point Humidity Pressure Visibility Wind Dir Wind Speed Gust Speed Precip Events Conditions
12:53 AM 46.9 °F - 28.9 °F 50% 30.04 in 10.0 mi South 5.8 mph - N/A   Clear
1:53 AM 43.0 °F 39.5 °F 28.0 °F 56% 30.02 in 10.0 mi South 5.8 mph - N/A   Clear
3:53 AM 48.0 °F - 30.0 °F 50% 29.98 in 10.0 mi South 8.1 mph - N/A   Clear
4:53 AM 46.9 °F - 30.0 °F 52% 29.97 in 10.0 mi South 11.5 mph - N/A   Clear
5:53 AM 46.0 °F 41.4 °F 30.0 °F 54% 29.96 in 10.0 mi South 9.2 mph - N/A   Clear
6:53 AM 48.0 °F - 30.0 °F 50% 29.94 in 10.0 mi SSW 15.0 mph - N/A   Clear
7:53 AM 50.0 °F - 30.9 °F 48% 29.92 in 10.0 mi SSW 20.7 mph 26.5 mph N/A   Clear
8:53 AM 53.1 °F - 32.0 °F 45% 29.91 in 10.0 mi South 16.1 mph 26.5 mph N/A   Clear
9:53 AM 59.0 °F - 33.1 °F 38% 29.88 in 10.0 mi SSW 18.4 mph 25.3 mph N/A   Clear
10:53 AM 66.0 °F - 33.1 °F 29% 29.84 in 10.0 mi South 23.0 mph 29.9 mph N/A   Clear
11:53 AM 71.1 °F - 33.1 °F 25% 29.81 in 10.0 mi South 25.3 mph 29.9 mph N/A   Clear
12:53 PM 75.9 °F - 34.0 °F 22% 29.78 in 10.0 mi South 19.6 mph 27.6 mph N/A   Clear
1:53 PM 80.1 °F - 34.0 °F 19% 29.75 in 10.0 mi South 20.7 mph 27.6 mph N/A   Clear
2:53 PM 82.9 °F - 34.0 °F 17% 29.72 in 10.0 mi SSW 19.6 mph 26.5 mph N/A   Clear
3:53 PM 84.9 °F - 35.1 °F 17% 29.69 in 10.0 mi SSW 13.8 mph 24.2 mph N/A   Clear
4:53 PM 86.0 °F - 35.1 °F 16% 29.68 in 10.0 mi South 15.0 mph - N/A   Clear
5:53 PM 84.9 °F - 34.0 °F 16% 29.68 in 10.0 mi South 15.0 mph 20.7 mph N/A   Clear
6:53 PM 80.1 °F - 34.0 °F 19% 29.69 in 10.0 mi South 11.5 mph - N/A   Clear
7:53 PM 73.9 °F - 34.0 °F 23% 29.70 in 10.0 mi South 15.0 mph - N/A   Clear
9:53 PM 69.1 °F - 34.0 °F 27% 29.71 in 10.0 mi South 12.7 mph - N/A   Clear
10:53 PM 66.0 °F - 34.0 °F 30% 29.71 in 10.0 mi South 12.7 mph - N/A   Clear
11:53 PM 66.9 °F - 33.1 °F 28% 29.71 in 10.0 mi South 13.8 mph - N/A   Clear